Simultaneous Nadir Overpasses (SNOs) Predictions

Prediction of SNOs over PacNW region [( 10.00, 139.50) to ( 22.70, 165.60)] between AQUA and NPP Satellites:

Table of predicted SNOs over PacNW region for the next 30.0 days since TLE Epoch: 8/14/2021
Index Date (AQUA) Time (AQUA) AQUA Lat,Lon Date (NPP) Time (NPP) NPP Lat,Lon Distance(km) Time Diff (sec)
1 08/15/2021 15:59:16 22.59, 147.47 08/15/2021 16:02:18 23.29, 144.47 317.19 182
2 08/23/2021 15:09:47 22.61, 159.85 08/23/2021 15:11:38 23.23, 157.13 286.42 111
3 08/26/2021 03:31:37 22.67, 147.53 08/26/2021 03:28:08 23.39, 145.46 226.67 209
4 08/31/2021 15:59:10 22.64, 147.50 08/31/2021 16:02:25 23.33, 144.46 320.94 195
5 09/08/2021 15:09:41 22.60, 159.87 09/08/2021 15:11:46 23.23, 157.12 290.90 125
